Mount Pleasant Municipal Airport
Sunday 1:55 PM
Temperature77° (77°/52°)
Dew Point46°
Relative Humidity34
%
Visibility10
mi
Pressure1025.4
mb
Wind Direction
Wind SpeedCalm
Precipitation Today0.00"

Last 30 Observations

Time PresWx Temp DP Feels RH% Vsby Pressure Ceiling Direction Speed 1h Precip
1:35 PM 77° 46° 34
%
10
mi
1025.7
mb
Calm 0.00"
1:15 PM 77° 46° 34
%
10
mi
1026.1
mb
Calm 0.00"
12:55 PM 75° 46° 36
%
10
mi
1026.1
mb
Calm 0.00"
12:35 PM 75° 46° 36
%
10
mi
1026.1
mb
SE
140°
7
mph
0.00"
12:15 PM 73° 46° 38
%
10
mi
1026.4
mb
Calm 0.00"
11:55 AM 73° 46° 38
%
10
mi
1026.8
mb
SSW
200°
3
mph
0.00"
11:35 AM 73° 46° 38
%
10
mi
1026.8
mb
SSE
150°
6
mph
0.00"
11:15 AM 73° 45° 36
%
10
mi
1026.8
mb
10,000
ft
Calm 0.00"
10:55 AM 73° 46° 38
%
10
mi
1027.1
mb
Calm 0.00"
10:35 AM 72° 43° 35
%
10
mi
1027.1
mb
Calm 0.00"
10:15 AM 72° 45° 38
%
10
mi
1027.1
mb
SE
140°
3
mph
0.00"
9:55 AM 72° 46° 41
%
10
mi
1027.1
mb
Calm 0.00"
9:35 AM 72° 52° 50
%
10
mi
1027.4
mb
Calm 0.00"
9:15 AM 70° 52° 53
%
10
mi
1027.4
mb
10,000
ft
SSE
150°
3
mph
0.00"
8:55 AM 68° 52° 56
%
10
mi
1027.1
mb
Calm 0.00"
8:35 AM 66° 50° 56
%
10
mi
1027.1
mb
Calm 0.00"
8:15 AM 64° 52° 64
%
10
mi
1026.8
mb
Calm 0.00"
7:55 AM 63° 50° 63
%
10
mi
1026.8
mb
E
100°
6
mph
0.00"
7:35 AM 61° 52° 72
%
10
mi
1026.4
mb
Calm 0.00"
7:15 AM 59° 52° 77
%
10
mi
1026.4
mb
Calm 0.00"
6:55 AM 57° 52° 82
%
10
mi
1026.1
mb
Calm 0.00"
6:35 AM 55° 52° 88
%
10
mi
1025.7
mb
Calm 0.00"
6:15 AM 52° 50° 94
%
10
mi
1025.4
mb
Calm 0.00"
5:55 AM 52° 48° 87
%
10
mi
1025.4
mb
Calm 0.00"
5:35 AM 52° 48° 87
%
10
mi
1025.4
mb
Calm 0.00"
5:15 AM 54° 48° 82
%
10
mi
1025.1
mb
Calm 0.00"
4:55 AM 54° 48° 82
%
10
mi
1025.1
mb
Calm 0.00"
4:35 AM 54° 48° 82
%
10
mi
1025.1
mb
Calm 0.00"
4:15 AM 54° 50° 88
%
10
mi
1025.1
mb
Calm 0.00"
3:55 AM 55° 50° 82
%
10
mi
1025.1
mb
Calm 0.00"